Погода в Даниловке

Погода в Даниловке : погода сейчас, прогноз погоды и архив. Всё, что Вы хотите узнать о погоде в Даниловке!

Хотите узнать прогноз погоды в Даниловке? Тогда Вам сюда: Погода в Даниловке

Поиск расширенной информации на нашем сайте:

Полезная информация: фильтр с ионообменной смолой для умягчения воды

Другие новости

Новости СМИ2

Главная страница сайта

Новости сайта

02.10.2013

Напоминаем, что на нашем новом сайте вы можете получить высокодетализированные прогнозы погоды по пунктам России, СНГ и мира (включающие важные для авиации метеовеличины, такие как направление и скорость ветра, видимость, явления погоды, количество и форма облачности, нижняя и верхняя граница облачности), а также ознакомиться с разнообразными материалами по авиационной метеорологии и подборкой полезных ссылок на эту тему.

Сайт Метеоцентр.Азия посвящён разработке технологий оптимизации авиаметеорологического обслуживания, включая проектирование и перспективное создание нескольких автоматизированных авиаметеорологических систем:
- система выпуска высокодетальных прогностических карт явлений погоды для нижнего воздушного пространства по России и ближнему зарубежью;
- система верификации прогнозов TAF (выпускаемых синоптиками официальных АМСГ РФ и ближнего зарубежья) и AUTOTAF (выпускаемых сайтом Метеоцентр.Азия) - выявление ошибок, онлайн-сопоставление с фактической погодой METAR, автоматическое внесение коррективов в прогнозы при резком отклонении фактической погоды от прогноза, подсчёт оправдываемости прогнозов по элементам и в целом;
- система обработки, анализа и отображения авиаметеорологической информации для применения провайдерами метеорологической информации.

Рекомендуем: http://2-sklad.ru/ мастертекс 500мл пена монтажная купить.

Погода в Даниловке - сегодня

Время (UTC), дата Ветер
(°,м/с) 
Видим.   Явления Облачность Т
(°С)
Тd
(°С)
f(%) Тe
(°С)
Pmin
(гПа)
dP
(гПа)
Po
(мм)
O2
(г/м3)
Тmin Tmax R s Состояние
почвы
12 22.04.17 270 (З) 9-14{15}  20000 м  {ливн. осадки}  10/10 600 м кучево-дожд. 
[Cb calv]
+7.9 +2.9 71 +5  1003.4  743  291           
15 22.04.17 250 (З) 6-11{15}  20000 м    10/10 600 м кучево-дожд. 
[Cb calv]
+5.9 +2.2 77 +4  1006.2  2.6  745  294    +9.6     
18 22.04.17 210 (ЮЗ) 3{11}  20000 м    10/0 верхняя 
[Cs]
+4.4 +1.2 80 +3  1007.8  1.5  746  296           
21 22.04.17 220 (ЮЗ) 20000 м    10/0 верхняя 
[Cs]
+5.1 +1.7 79 +5  1008.3  0.5  747  295           
00 23.04.17 230 (ЮЗ) 20000 м    10/0 верхняя 
[Cs]
+6.1 +2.8 79 +5  1008.2  747  294           
03 23.04.17 200 (Ю) 20000 м    10/5 600 м средняя, верхняя 
[Sc|Ac trans|Cs]
+5.1 +3.2 88 +5  1009.4  1.1  748  295  +4.3        влажная 
06 23.04.17 210 (ЮЗ) 20000 м  в посл. час ливневой дождь  10/10 300 м кучево-дожд. 
[Cb calv]
+9.2 +5.6 78 +8  1010.4  1.2  749  291           
09 23.04.17 210 (ЮЗ) 20000 м    10/10 600 м кучево-дожд. 
[Cb calv]
+11.3 +6.1 70 +11  1010.2  -0.1  748  289           
12 23.04.17 030 (СВ) 20000 м  в посл. час ливневой дождь  10/10 300 м кучево-дожд. 
[Cb calv]
+10.4 +7 79 +12  1008.9  -1.3  747  289           
15 23.04.17 070 (В) 4000 м  слаб. дождь  10/10 300 м 
[Frnb|Ns]
+9.5 +7.9 90 +11  1007  -1.9  746  289    +11.8  0.3     
18 23.04.17 190 (Ю) 4000 м  слаб. дождь  10/10 300 м 
[Frnb|Ns]
+6.5 +5.7 95 +6  1008.6  1.5  747  293           
21 23.04.17 060 (СВ) 4000 м  слаб. дождь  10/10 300 м 
[Frnb|Ns]
+5.9 +5.2 95 +7  1006.4  -2.2  745  293           
00 24.04.17 070 (В) 2000 м  слаб. дождь  10/10 300 м 
[Frnb|Ns]
+5.9 +5.4 97 +6  1002.6  -3.8  743  292           
03 24.04.17 360 (С) 10 км  слаб. дождь  10/10 300 м 
[Frnb|Ns]
+5.5 +4.6 94 +4  998.9  -3.7  740  291  +5.5    21    мокрая 
06 24.04.17 330 (СЗ) 5{10}  10 км  слаб. дождь  10/10 300 м 
[Frnb|Ns]
+5.7 +4.4 91 +4  999.2  0.3  740  291           
09 24.04.17 310 (СЗ) 5{10}  20000 м  {дождь}  10/10 600 м 
[Sc]
+6.4 +3.4 81 +5  1001.4  2.2  742  291           
12 24.04.17 320 (СЗ) 6-12{13}  20000 м  {дождь}  8/6 600 м средняя 
[Sc|Ac trans]
+9.3 +2.6 63 +8  1005.2  3.9  745  290           
15 24.04.17 320 (СЗ) 3{12}  20000 м    4/3 600 м средняя 
[Sc|Ac trans]
+9.8 +2.3 60 +9  1007.8  2.6  747  290    +10.4     
18 24.04.17 тихо ()   20000 м    10/6 600 м кучево-дожд., верхняя 
[Cb calv|Cs]
+4.1 +2.6 90 +4  1010.5  2.4  748  297           
21 24.04.17 060 (СВ) 20000 м    10/10 600 м 
[Sc]
+4.2 +2.6 89 +5  1011.1  0.6  749  297           
00 25.04.17 080 (В) 2000 м  ливневой дождь  10/10 300 м кучево-дожд. 
[Cb calv]
+4.4 +2.8 89 +4  1012.1  0.9  750  297           
03 25.04.17 330 (СЗ) 10 км  слаб. ливневой дождь  10/10 300 м кучево-дожд. 
[Cb calv]
+4.1 +2.8 91 +4  1014.4  2.3  751  298  +3.7      мокрая 
06 25.04.17 300 (СЗ) 20000 м  {ливн. осадки}  9/9 600 м кучево-дожд. 
[Cb calv]
+6.3 +3.1 80 +6  1017.1  2.7  753  296  +3.6         
09 25.04.17 310 (СЗ) 5-10{10}  20000 м    8/8 600 м кучево-дожд. 
[Cb calv]
+10.2 -0.3 48 +9  1018.8  1.8  755  293           
12 25.04.17 280 (З) 6-10{11}  20000 м    9/9 600 м кучево-дожд. 
[Cb calv]
+11.2 -2 40 +10  1020.3  1.5  756  293           
Время (UTC), дата Ветер
(°,м/с) 
Видим.   Явления Облачность Т
(°С)
Тd
(°С)
f(%) Тe
(°С)
Pmin
(гПа)
dP
(гПа)
Po
(мм)
O2
(г/м3)
Тmin Tmax R s Состояние
почвы

Для получения пояснительной информации подведите курсор к названию столбца.

ПОГОДА в Даниловке - архив

Всё, что Вы хотите узнать о погоде в Даниловке - удобно и подробно!

Выберите нужную дату (начиная с 1 января 2015* года) и нажмите кнопку "Найти".
Будут отображены архивные сводки погоды по пункту Даниловка, начиная с указанной даты.


Отображать данные в формате CSV (для использования в таблицах Excel)


Внимание! Наш архив погоды предназначен исключительно для личного некоммерческого использования в познавательных целях. Если Вам необходимы официальные справки о состоянии погоды (для производственных, юридических, коммерческих и т.п. целей), обращайтесь в органы Росгидромета.

*Примечание: данная дата относится к архиву по метеостанциям СССР (Россия, СНГ, Балтия).
Архив по метеостанциям Зарубежной Европы и Азии (кроме Китая) хранится 10 дней, по другим регионам земного шара (Китай, Африка, Америка, Австралия, Океания) - 1 день.

Даниловка - район местоположения метеостанции


Название, широта, долгота, высота метеостанции:
Даниловка 50.4°ш. 44.1°д. 102 м над ур. моря [Российская Федерация]

Дополнительная информация

В oтличие oт бoльшинства пoгoдных сайтoв мы публикуем пoдрoбную метеoинфoрмацию в детальнoм прoфессиoнальнoм фoрмате.

Характеристики температуры и влажнoсти вoздуха измеряются на высoте 2 м в тени вдали oт зданий и деревьев.
Скoрoсть ветра измеряется на высoте 10 м (на урoвне рoста челoвека скoрoсть ветра ниже в 1.5-2 раза). Если метеoстанция нахoдится в гoрoде или в лесу, тo скoрoсть ветра занижена на 2-4 м/с пo сравнению с oткрытым местoм. Скoрoсть ветра над акватoриями крупных рек и oзёр, а также на вершинах хoлмoв на 2-5 м/с выше, чем в oбычных услoвиях.
Атмoсфернoе давление в разных тoчках местнoсти мoжет значительнo oтличаться oт давления на метеoстанции, в зависимoсти oт услoвий рельефа (при пoдъёме на 10 м давление пoнижается примернo на 1 мм рт.ст.).